Find Starlink 30805

NORAD ID: 58214 Int'l Des: 2023-170 Owner: SPXS Country: US Constellation: starlink operational
LEOCIRCULAR

Live-Position

3D-Globus wird geladen...

Über Starlink 30805

Beschreibung wird geladen...

Nächste Überflüge

Passes for default location (London). Set your location on the main map for personalized predictions.

Höhenverlauf

Loading altitude history...

Zweizeiliger Elementsatz

1 58214U 23170J 26124.79713308 -.00000479 00000-0 -78819-5 0 9996
2 58214 43.0009 237.0812 0001732 268.8359 91.2295 15.27568205138882
Epoch: 4. Mai 2026 • Age: 16 hours

Aktueller Status

Höhe 487.4 km
Geschwindigkeit 7.63 km/s
Subsatellitenpunkt 42.92°N, 61.21°W
Startdatum 4. Nov. 2023
Alter 2.4 years
Typ internet

Technische Details

Klassifizierung Payload
Masse 730.00 kg
Trockenmasse 700.00 kg
Gesamtmasse 730.00 kg
Länge 0.30 m
Durchmesser 4.10 m
Spannweite 29.00 m
Form Box + pan
Hersteller SPXS
Bus-Typ Starlink V2M
Phasenstatus In Orbit
Besitzer/Staat SPXS/US

Most Searched